Time,TemperatureF,DewpointF,PressureIn,WindDirection,WindDirectionDegrees,WindSpeedMPH,WindSpeedGustMPH,Humidity,HourlyPrecipIn,Conditions,Clouds,dailyrainin,SoftwareType,DateUTC
2013-04-22 00:01:00,48.0,41.1,30.61,East,90,0.0,4.0,77,0.00,,,0.00,Weather View 32 v70,2013-04-22 04:01:00,
2013-04-22 00:06:00,48.0,41.1,30.62,South,180,0.0,4.0,77,0.00,,,0.00,Weather View 32 v70,2013-04-22 04:06:00,
2013-04-22 00:11:00,48.0,41.1,30.62,South,180,0.0,4.0,77,0.00,,,0.00,Weather View 32 v70,2013-04-22 04:11:00,
2013-04-22 00:16:00,47.0,39.8,30.62,East,90,0.0,4.0,76,0.00,,,0.00,Weather View 32 v70,2013-04-22 04:16:00,
2013-04-22 00:21:00,47.0,39.8,30.62,East,90,0.0,4.0,76,0.00,,,0.00,Weather View 32 v70,2013-04-22 04:21:00,
2013-04-22 00:26:00,47.0,39.8,30.63,East,90,0.0,3.0,76,0.00,,,0.00,Weather View 32 v70,2013-04-22 04:26:00,
2013-04-22 00:36:00,47.0,39.8,30.63,NE,45,0.0,3.0,76,0.00,,,0.00,Weather View 32 v70,2013-04-22 04:36:00,
2013-04-22 00:41:00,47.0,39.8,30.63,East,90,0.0,3.0,76,0.00,,,0.00,Weather View 32 v70,2013-04-22 04:41:00,
2013-04-22 00:46:00,46.0,38.8,30.63,East,90,0.0,3.0,76,0.00,,,0.00,Weather View 32 v70,2013-04-22 04:46:00,
2013-04-22 00:51:00,46.0,38.8,30.63,NNE,22,0.0,3.0,76,0.00,,,0.00,Weather View 32 v70,2013-04-22 04:51:00,
2013-04-22 00:59:00,46.0,38.8,30.63,NE,45,0.0,3.0,76,0.00,,,0.00,Weather View 32 v70,2013-04-22 04:59:00,
2013-04-22 01:01:00,46.0,38.8,30.63,East,90,0.0,3.0,76,0.00,,,0.00,Weather View 32 v70,2013-04-22 05:01:00,
2013-04-22 01:06:00,46.0,38.8,30.64,East,90,0.0,3.0,76,0.00,,,0.00,Weather View 32 v70,2013-04-22 05:06:00,
2013-04-22 01:11:00,46.0,38.8,30.64,East,90,0.0,3.0,76,0.00,,,0.00,Weather View 32 v70,2013-04-22 05:11:00,
2013-04-22 01:16:00,45.0,37.9,30.63,East,90,0.0,3.0,76,0.00,,,0.00,Weather View 32 v70,2013-04-22 05:16:00,
2013-04-22 01:21:00,45.0,37.9,30.63,East,90,0.0,3.0,76,0.00,,,0.00,Weather View 32 v70,2013-04-22 05:21:00,
2013-04-22 01:26:00,45.0,37.9,30.63,SE,135,0.0,3.0,76,0.00,,,0.00,Weather View 32 v70,2013-04-22 05:26:00,
2013-04-22 01:31:00,45.0,37.9,30.63,SE,135,0.0,3.0,76,0.00,,,0.00,Weather View 32 v70,2013-04-22 05:31:00,
2013-04-22 01:36:00,45.0,37.9,30.63,West,270,0.0,3.0,76,0.00,,,0.00,Weather View 32 v70,2013-04-22 05:36:00,
2013-04-22 01:41:00,45.0,37.9,30.63,West,270,0.0,3.0,76,0.00,,,0.00,Weather View 32 v70,2013-04-22 05:41:00,
2013-04-22 01:46:00,44.0,36.9,30.62,West,270,0.0,3.0,76,0.00,,,0.00,Weather View 32 v70,2013-04-22 05:46:00,
2013-04-22 01:51:00,44.0,36.9,30.62,West,270,0.0,3.0,76,0.00,,,0.00,Weather View 32 v70,2013-04-22 05:51:00,
2013-04-22 01:56:00,44.0,36.9,30.63,West,270,0.0,3.0,76,0.00,,,0.00,Weather View 32 v70,2013-04-22 05:56:00,
2013-04-22 02:01:00,44.0,36.9,30.63,West,270,0.0,3.0,76,0.00,,,0.00,Weather View 32 v70,2013-04-22 06:01:00,
2013-04-22 02:11:00,44.0,36.9,30.62,WSW,247,0.0,3.0,76,0.00,,,0.00,Weather View 32 v70,2013-04-22 06:11:00,
2013-04-22 02:16:00,43.0,35.9,30.62,WSW,247,0.0,3.0,76,0.00,,,0.00,Weather View 32 v70,2013-04-22 06:16:00,
2013-04-22 02:21:00,43.0,35.9,30.62,WSW,247,0.0,3.0,76,0.00,,,0.00,Weather View 32 v70,2013-04-22 06:21:00,
2013-04-22 02:26:00,43.0,35.9,30.62,WSW,247,0.0,3.0,76,0.00,,,0.00,Weather View 32 v70,2013-04-22 06:26:00,
2013-04-22 02:31:00,43.0,35.9,30.62,WSW,247,0.0,0.0,76,0.00,,,0.00,Weather View 32 v70,2013-04-22 06:31:00,
2013-04-22 02:36:00,43.0,35.9,30.61,WSW,247,0.0,0.0,76,0.00,,,0.00,Weather View 32 v70,2013-04-22 06:36:00,
2013-04-22 02:41:00,43.0,35.9,30.61,WSW,247,0.0,0.0,76,0.00,,,0.00,Weather View 32 v70,2013-04-22 06:41:00,
2013-04-22 02:46:00,42.0,34.6,30.61,WSW,247,0.0,0.0,75,0.00,,,0.00,Weather View 32 v70,2013-04-22 06:46:00,
2013-04-22 02:51:00,42.0,34.6,30.61,WSW,247,0.0,0.0,75,0.00,,,0.00,Weather View 32 v70,2013-04-22 06:51:00,
2013-04-22 02:56:00,42.0,34.6,30.61,WSW,247,0.0,0.0,75,0.00,,,0.00,Weather View 32 v70,2013-04-22 06:56:00,
2013-04-22 03:01:00,42.0,34.6,30.61,WSW,247,0.0,0.0,75,0.00,,,0.00,Weather View 32 v70,2013-04-22 07:01:00,
2013-04-22 03:06:00,42.0,34.6,30.60,WSW,247,0.0,0.0,75,0.00,,,0.00,Weather View 32 v70,2013-04-22 07:06:00,
2013-04-22 03:11:00,41.0,33.7,30.60,WSW,247,0.0,0.0,75,0.00,,,0.00,Weather View 32 v70,2013-04-22 07:11:00,
2013-04-22 03:21:00,41.0,33.7,30.60,WSW,247,0.0,0.0,75,0.00,,,0.00,Weather View 32 v70,2013-04-22 07:21:00,
2013-04-22 03:31:00,41.0,33.7,30.60,WSW,247,0.0,0.0,75,0.00,,,0.00,Weather View 32 v70,2013-04-22 07:31:00,
2013-04-22 03:36:00,41.0,33.7,30.60,WSW,247,0.0,0.0,75,0.00,,,0.00,Weather View 32 v70,2013-04-22 07:36:00,
2013-04-22 03:41:00,41.0,33.7,30.60,WSW,247,0.0,0.0,75,0.00,,,0.00,Weather View 32 v70,2013-04-22 07:41:00,
2013-04-22 03:46:00,40.0,32.7,30.59,West,270,0.0,0.0,75,0.00,,,0.00,Weather View 32 v70,2013-04-22 07:46:00,
2013-04-22 03:51:00,40.0,32.7,30.59,West,270,0.0,0.0,75,0.00,,,0.00,Weather View 32 v70,2013-04-22 07:51:00,
2013-04-22 03:56:00,40.0,32.7,30.59,West,270,0.0,0.0,75,0.00,,,0.00,Weather View 32 v70,2013-04-22 07:56:00,
2013-04-22 04:01:00,40.0,32.7,30.59,SW,225,0.0,0.0,75,0.00,,,0.00,Weather View 32 v70,2013-04-22 08:01:00,
2013-04-22 04:06:00,40.0,32.7,30.59,SW,225,0.0,0.0,75,0.00,,,0.00,Weather View 32 v70,2013-04-22 08:06:00,
2013-04-22 04:11:00,40.0,32.7,30.59,SW,225,0.0,0.0,75,0.00,,,0.00,Weather View 32 v70,2013-04-22 08:11:00,
2013-04-22 04:16:00,40.0,32.7,30.58,SW,225,0.0,0.0,75,0.00,,,0.00,Weather View 32 v70,2013-04-22 08:16:00,
2013-04-22 04:21:00,40.0,32.7,30.58,SW,225,0.0,0.0,75,0.00,,,0.00,Weather View 32 v70,2013-04-22 08:21:00,
2013-04-22 04:26:00,40.0,32.7,30.58,SW,225,0.0,0.0,75,0.00,,,0.00,Weather View 32 v70,2013-04-22 08:26:00,
2013-04-22 04:31:00,40.0,32.7,30.58,SW,225,0.0,0.0,75,0.00,,,0.00,Weather View 32 v70,2013-04-22 08:31:00,
2013-04-22 04:36:00,40.0,32.7,30.57,West,270,0.0,3.0,75,0.00,,,0.00,Weather View 32 v70,2013-04-22 08:36:00,
2013-04-22 04:46:00,40.0,32.7,30.58,West,270,0.0,3.0,75,0.00,,,0.00,Weather View 32 v70,2013-04-22 08:46:00,
2013-04-22 04:51:00,40.0,32.7,30.58,West,270,0.0,3.0,75,0.00,,,0.00,Weather View 32 v70,2013-04-22 08:51:00,
2013-04-22 04:56:00,40.0,32.7,30.58,West,270,0.0,3.0,75,0.00,,,0.00,Weather View 32 v70,2013-04-22 08:56:00,
2013-04-22 05:01:00,40.0,32.7,30.58,West,270,0.0,3.0,75,0.00,,,0.00,Weather View 32 v70,2013-04-22 09:01:00,
2013-04-22 05:11:00,40.0,32.7,30.58,West,270,0.0,3.0,75,0.00,,,0.00,Weather View 32 v70,2013-04-22 09:11:00,
2013-04-22 05:16:00,40.0,32.7,30.59,West,270,0.0,3.0,75,0.00,,,0.00,Weather View 32 v70,2013-04-22 09:16:00,
2013-04-22 05:21:00,40.0,32.7,30.59,NW,315,0.0,3.0,75,0.00,,,0.00,Weather View 32 v70,2013-04-22 09:21:00,
2013-04-22 05:26:00,39.0,31.7,30.59,NW,315,0.0,3.0,75,0.00,,,0.00,Weather View 32 v70,2013-04-22 09:26:00,
2013-04-22 05:31:00,39.0,31.7,30.59,NW,315,0.0,3.0,75,0.00,,,0.00,Weather View 32 v70,2013-04-22 09:31:00,
2013-04-22 05:36:00,39.0,31.7,30.59,NW,315,0.0,3.0,75,0.00,,,0.00,Weather View 32 v70,2013-04-22 09:36:00,
2013-04-22 05:41:00,39.0,31.7,30.59,NW,315,0.0,3.0,75,0.00,,,0.00,Weather View 32 v70,2013-04-22 09:41:00,
2013-04-22 05:46:00,39.0,31.7,30.59,NW,315,0.0,3.0,75,0.00,,,0.00,Weather View 32 v70,2013-04-22 09:46:00,
2013-04-22 05:51:00,39.0,31.7,30.59,NW,315,0.0,3.0,75,0.00,,,0.00,Weather View 32 v70,2013-04-22 09:51:00,
2013-04-22 05:56:00,39.0,31.7,30.60,NW,315,0.0,3.0,75,0.00,,,0.00,Weather View 32 v70,2013-04-22 09:56:00,
2013-04-22 06:02:00,39.0,31.7,30.60,NW,315,0.0,3.0,75,0.00,,,0.00,Weather View 32 v70,2013-04-22 10:02:00,
2013-04-22 06:11:00,39.0,31.7,30.60,NW,315,0.0,3.0,75,0.00,,,0.00,Weather View 32 v70,2013-04-22 10:11:00,
2013-04-22 06:16:00,38.0,30.8,30.61,NW,315,0.0,3.0,75,0.00,,,0.00,Weather View 32 v70,2013-04-22 10:16:00,
2013-04-22 06:21:00,38.0,30.8,30.61,NW,315,0.0,0.0,75,0.00,,,0.00,Weather View 32 v70,2013-04-22 10:21:00,
2013-04-22 06:26:00,38.0,30.8,30.60,NW,315,0.0,0.0,75,0.00,,,0.00,Weather View 32 v70,2013-04-22 10:26:00,
2013-04-22 06:31:00,38.0,30.8,30.60,NW,315,0.0,0.0,75,0.00,,,0.00,Weather View 32 v70,2013-04-22 10:31:00,
2013-04-22 06:36:00,38.0,30.8,30.60,NW,315,0.0,0.0,75,0.00,,,0.00,Weather View 32 v70,2013-04-22 10:36:00,
2013-04-22 06:41:00,38.0,30.8,30.60,NW,315,0.0,0.0,75,0.00,,,0.00,Weather View 32 v70,2013-04-22 10:41:00,
2013-04-22 06:46:00,38.0,30.8,30.60,West,270,0.0,0.0,75,0.00,,,0.00,Weather View 32 v70,2013-04-22 10:46:00,
2013-04-22 06:51:00,38.0,30.8,30.60,West,270,0.0,0.0,75,0.00,,,0.00,Weather View 32 v70,2013-04-22 10:51:00,
2013-04-22 06:56:00,38.0,30.8,30.61,West,270,0.0,0.0,75,0.00,,,0.00,Weather View 32 v70,2013-04-22 10:56:00,
2013-04-22 07:01:00,38.0,30.8,30.61,West,270,0.0,0.0,75,0.00,,,0.00,Weather View 32 v70,2013-04-22 11:01:00,
2013-04-22 07:06:00,38.0,30.8,30.60,West,270,0.0,0.0,75,0.00,,,0.00,Weather View 32 v70,2013-04-22 11:06:00,
2013-04-22 07:11:00,38.0,30.8,30.60,West,270,0.0,0.0,75,0.00,,,0.00,Weather View 32 v70,2013-04-22 11:11:00,
2013-04-22 07:21:00,38.0,30.8,30.60,West,270,0.0,0.0,75,0.00,,,0.00,Weather View 32 v70,2013-04-22 11:21:00,
2013-04-22 07:26:00,38.0,30.8,30.59,West,270,0.0,0.0,75,0.00,,,0.00,Weather View 32 v70,2013-04-22 11:26:00,
2013-04-22 07:31:00,38.0,30.8,30.59,West,270,0.0,0.0,75,0.00,,,0.00,Weather View 32 v70,2013-04-22 11:31:00,
2013-04-22 07:36:00,38.0,30.8,30.59,West,270,0.0,0.0,75,0.00,,,0.00,Weather View 32 v70,2013-04-22 11:36:00,
2013-04-22 07:41:00,39.0,31.7,30.59,East,90,0.0,0.0,75,0.00,,,0.00,Weather View 32 v70,2013-04-22 11:41:00,
2013-04-22 07:46:00,39.0,31.7,30.59,NW,315,0.0,0.0,75,0.00,,,0.00,Weather View 32 v70,2013-04-22 11:46:00,
2013-04-22 07:51:00,39.0,31.7,30.59,WNW,292,0.0,4.0,75,0.00,,,0.00,Weather View 32 v70,2013-04-22 11:51:00,
2013-04-22 07:56:00,40.0,32.7,30.59,WNW,292,0.0,4.0,75,0.00,,,0.00,Weather View 32 v70,2013-04-22 11:56:00,
2013-04-22 08:01:00,40.0,32.7,30.59,NE,45,0.0,4.0,75,0.00,,,0.00,Weather View 32 v70,2013-04-22 12:01:00,
2013-04-22 08:06:00,41.0,33.7,30.58,West,270,0.0,4.0,75,0.00,,,0.00,Weather View 32 v70,2013-04-22 12:06:00,
2013-04-22 08:11:00,41.0,33.7,30.58,West,270,0.0,4.0,75,0.00,,,0.00,Weather View 32 v70,2013-04-22 12:11:00,
2013-04-22 08:16:00,42.0,34.6,30.58,West,270,0.0,4.0,75,0.00,,,0.00,Weather View 32 v70,2013-04-22 12:16:00,
2013-04-22 08:21:00,42.0,34.6,30.58,SW,225,0.0,4.0,75,0.00,,,0.00,Weather View 32 v70,2013-04-22 12:21:00,
2013-04-22 08:26:00,43.0,35.9,30.58,West,270,0.0,4.0,76,0.00,,,0.00,Weather View 32 v70,2013-04-22 12:26:00,
2013-04-22 08:31:00,44.0,36.9,30.58,West,270,0.0,4.0,76,0.00,,,0.00,Weather View 32 v70,2013-04-22 12:31:00,
2013-04-22 08:41:00,44.0,36.9,30.58,NW,315,0.0,4.0,76,0.00,,,0.00,Weather View 32 v70,2013-04-22 12:41:00,
2013-04-22 08:46:00,45.0,37.9,30.58,South,180,0.0,4.0,76,0.00,,,0.00,Weather View 32 v70,2013-04-22 12:46:00,
2013-04-22 08:51:00,45.0,37.9,30.58,NE,45,0.0,4.0,76,0.00,,,0.00,Weather View 32 v70,2013-04-22 12:51:00,
2013-04-22 08:56:00,45.0,37.9,30.58,West,270,0.0,4.0,76,0.00,,,0.00,Weather View 32 v70,2013-04-22 12:56:00,
2013-04-22 09:01:00,46.0,38.8,30.58,West,270,0.0,4.0,76,0.00,,,0.00,Weather View 32 v70,2013-04-22 13:01:00,
2013-04-22 09:06:00,46.0,38.8,30.58,West,270,0.0,4.0,76,0.00,,,0.00,Weather View 32 v70,2013-04-22 13:06:00,
2013-04-22 09:11:00,46.0,38.8,30.58,South,180,0.0,4.0,76,0.00,,,0.00,Weather View 32 v70,2013-04-22 13:11:00,
2013-04-22 09:16:00,46.0,38.8,30.57,West,270,0.0,4.0,76,0.00,,,0.00,Weather View 32 v70,2013-04-22 13:16:00,
2013-04-22 09:21:00,47.0,39.8,30.57,SE,135,0.0,4.0,76,0.00,,,0.00,Weather View 32 v70,2013-04-22 13:21:00,
2013-04-22 09:26:00,47.0,39.8,30.57,NW,315,1.0,4.0,76,0.00,,,0.00,Weather View 32 v70,2013-04-22 13:26:00,
2013-04-22 09:31:00,47.0,39.8,30.57,West,270,0.0,4.0,76,0.00,,,0.00,Weather View 32 v70,2013-04-22 13:31:00,
2013-04-22 09:36:00,48.0,41.1,30.56,SE,135,0.0,4.0,77,0.00,,,0.00,Weather View 32 v70,2013-04-22 13:36:00,
2013-04-22 09:41:00,48.0,41.1,30.56,SE,135,0.0,4.0,77,0.00,,,0.00,Weather View 32 v70,2013-04-22 13:41:00,
2013-04-22 09:46:00,49.0,42.1,30.56,NNW,337,0.0,4.0,77,0.00,,,0.00,Weather View 32 v70,2013-04-22 13:46:00,
2013-04-22 09:51:00,49.0,42.1,30.56,SW,225,0.0,4.0,77,0.00,,,0.00,Weather View 32 v70,2013-04-22 13:51:00,
2013-04-22 10:01:00,51.0,44.0,30.55,West,270,0.0,4.0,77,0.00,,,0.00,Weather View 32 v70,2013-04-22 14:01:00,
2013-04-22 10:06:00,51.0,44.0,30.54,South,180,0.0,4.0,77,0.00,,,0.00,Weather View 32 v70,2013-04-22 14:06:00,
2013-04-22 10:11:00,52.0,45.0,30.54,WSW,247,0.0,4.0,77,0.00,,,0.00,Weather View 32 v70,2013-04-22 14:11:00,
2013-04-22 10:16:00,53.0,46.0,30.54,SE,135,0.0,4.0,77,0.00,,,0.00,Weather View 32 v70,2013-04-22 14:16:00,
2013-04-22 10:21:00,53.0,46.0,30.54,SW,225,0.0,4.0,77,0.00,,,0.00,Weather View 32 v70,2013-04-22 14:21:00,
2013-04-22 10:26:00,54.0,47.3,30.54,SE,135,0.0,4.0,78,0.00,,,0.00,Weather View 32 v70,2013-04-22 14:26:00,
2013-04-22 10:31:00,54.0,47.3,30.54,SSE,157,0.0,3.0,78,0.00,,,0.00,Weather View 32 v70,2013-04-22 14:31:00,
2013-04-22 10:36:00,54.0,47.3,30.54,SW,225,0.0,3.0,78,0.00,,,0.00,Weather View 32 v70,2013-04-22 14:36:00,
2013-04-22 10:41:00,54.0,47.3,30.54,South,180,0.0,3.0,78,0.00,,,0.00,Weather View 32 v70,2013-04-22 14:41:00,
2013-04-22 10:51:00,53.0,46.0,30.54,South,180,0.0,3.0,77,0.00,,,0.00,Weather View 32 v70,2013-04-22 14:51:00,
2013-04-22 10:56:00,53.0,46.0,30.54,West,270,0.0,4.0,77,0.00,,,0.00,Weather View 32 v70,2013-04-22 14:56:00,
2013-04-22 11:01:00,53.0,46.0,30.54,East,90,0.0,4.0,77,0.00,,,0.00,Weather View 32 v70,2013-04-22 15:01:00,
2013-04-22 11:06:00,54.0,47.3,30.54,SE,135,0.0,4.0,78,0.00,,,0.00,Weather View 32 v70,2013-04-22 15:06:00,
2013-04-22 11:11:00,54.0,47.3,30.54,West,270,0.0,4.0,78,0.00,,,0.00,Weather View 32 v70,2013-04-22 15:11:00,
2013-04-22 11:16:00,54.0,47.3,30.53,ESE,112,0.0,4.0,78,0.00,,,0.00,Weather View 32 v70,2013-04-22 15:16:00,
2013-04-22 11:21:00,54.0,47.3,30.53,West,270,0.0,4.0,78,0.00,,,0.00,Weather View 32 v70,2013-04-22 15:21:00,
2013-04-22 11:26:00,54.0,47.3,30.53,NE,45,2.0,4.0,78,0.00,,,0.00,Weather View 32 v70,2013-04-22 15:26:00,
2013-04-22 11:31:00,54.0,47.3,30.53,West,270,0.0,4.0,78,0.00,,,0.00,Weather View 32 v70,2013-04-22 15:31:00,
2013-04-22 11:36:00,55.0,48.3,30.53,West,270,0.0,4.0,78,0.00,,,0.00,Weather View 32 v70,2013-04-22 15:36:00,
2013-04-22 11:41:00,55.0,48.3,30.53,North,360,0.0,4.0,78,0.00,,,0.00,Weather View 32 v70,2013-04-22 15:41:00,
2013-04-22 11:46:00,55.0,48.3,30.53,West,270,0.0,4.0,78,0.00,,,0.00,Weather View 32 v70,2013-04-22 15:46:00,
2013-04-22 11:56:00,56.0,49.2,30.53,West,270,0.0,5.0,78,0.00,,,0.00,Weather View 32 v70,2013-04-22 15:56:00,
2013-04-22 12:01:00,56.0,49.2,30.53,West,270,0.0,5.0,78,0.00,,,0.00,Weather View 32 v70,2013-04-22 16:01:00,
2013-04-22 12:06:00,57.0,50.2,30.51,SE,135,0.0,5.0,78,0.00,,,0.00,Weather View 32 v70,2013-04-22 16:06:00,
2013-04-22 12:11:00,58.0,51.2,30.51,SE,135,0.0,5.0,78,0.00,,,0.00,Weather View 32 v70,2013-04-22 16:11:00,
2013-04-22 12:16:00,59.0,52.5,30.50,SE,135,0.0,5.0,79,0.00,,,0.00,Weather View 32 v70,2013-04-22 16:16:00,
2013-04-22 12:21:00,59.0,52.5,30.50,East,90,0.0,5.0,79,0.00,,,0.00,Weather View 32 v70,2013-04-22 16:21:00,
2013-04-22 12:26:00,60.0,53.5,30.49,East,90,0.0,5.0,79,0.00,,,0.00,Weather View 32 v70,2013-04-22 16:26:00,
2013-04-22 12:31:00,61.0,54.4,30.49,South,180,0.0,6.0,79,0.00,,,0.00,Weather View 32 v70,2013-04-22 16:31:00,
2013-04-22 12:36:00,61.0,54.4,30.49,West,270,0.0,6.0,79,0.00,,,0.00,Weather View 32 v70,2013-04-22 16:36:00,
2013-04-22 12:41:00,62.0,55.4,30.49,South,180,0.0,6.0,79,0.00,,,0.00,Weather View 32 v70,2013-04-22 16:41:00,
2013-04-22 12:46:00,63.0,56.4,30.49,SE,135,0.0,6.0,79,0.00,,,0.00,Weather View 32 v70,2013-04-22 16:46:00,
2013-04-22 12:51:00,63.0,56.4,30.49,West,270,1.0,6.0,79,0.00,,,0.00,Weather View 32 v70,2013-04-22 16:51:00,
2013-04-22 12:56:00,63.0,56.4,30.47,East,90,0.0,6.0,79,0.00,,,0.00,Weather View 32 v70,2013-04-22 16:56:00,
2013-04-22 13:01:00,64.0,57.7,30.47,SE,135,0.0,6.0,80,0.00,,,0.00,Weather View 32 v70,2013-04-22 17:01:00,
2013-04-22 13:11:00,64.0,57.7,30.46,ESE,112,0.0,6.0,80,0.00,,,0.00,Weather View 32 v70,2013-04-22 17:11:00,
2013-04-22 13:16:00,64.0,57.7,30.45,SE,135,0.0,6.0,80,0.00,,,0.00,Weather View 32 v70,2013-04-22 17:16:00,
2013-04-22 13:21:00,64.0,57.7,30.45,NW,315,0.0,6.0,80,0.00,,,0.00,Weather View 32 v70,2013-04-22 17:21:00,
2013-04-22 13:26:00,65.0,58.7,30.44,SE,135,0.0,6.0,80,0.00,,,0.00,Weather View 32 v70,2013-04-22 17:26:00,
2013-04-22 13:31:00,65.0,58.7,30.44,West,270,0.0,5.0,80,0.00,,,0.00,Weather View 32 v70,2013-04-22 17:31:00,
2013-04-22 13:36:00,66.0,59.6,30.43,West,270,0.0,6.0,80,0.00,,,0.00,Weather View 32 v70,2013-04-22 17:36:00,
2013-04-22 13:41:00,66.0,59.6,30.43,West,270,0.0,6.0,80,0.00,,,0.00,Weather View 32 v70,2013-04-22 17:41:00,
2013-04-22 13:46:00,66.0,59.6,30.43,East,90,0.0,6.0,80,0.00,,,0.00,Weather View 32 v70,2013-04-22 17:46:00,
2013-04-22 13:51:00,66.0,59.6,30.43,West,270,0.0,6.0,80,0.00,,,0.00,Weather View 32 v70,2013-04-22 17:51:00,
2013-04-22 13:56:00,67.0,60.6,30.42,West,270,0.0,6.0,80,0.00,,,0.00,Weather View 32 v70,2013-04-22 17:56:00,
2013-04-22 14:01:00,67.0,60.6,30.42,West,270,0.0,6.0,80,0.00,,,0.00,Weather View 32 v70,2013-04-22 18:01:00,
2013-04-22 14:06:00,67.0,60.6,30.41,SW,225,0.0,6.0,80,0.00,,,0.00,Weather View 32 v70,2013-04-22 18:06:00,
2013-04-22 14:16:00,67.0,60.6,30.41,South,180,0.0,6.0,80,0.00,,,0.00,Weather View 32 v70,2013-04-22 18:16:00,
2013-04-22 14:21:00,67.0,60.6,30.41,SE,135,0.0,6.0,80,0.00,,,0.00,Weather View 32 v70,2013-04-22 18:21:00,
2013-04-22 14:26:00,67.0,60.6,30.41,West,270,0.0,6.0,80,0.00,,,0.00,Weather View 32 v70,2013-04-22 18:26:00,
2013-04-22 14:31:00,67.0,60.6,30.41,SW,225,0.0,6.0,80,0.00,,,0.00,Weather View 32 v70,2013-04-22 18:31:00,
2013-04-22 14:36:00,67.0,60.6,30.40,NNW,337,0.0,6.0,80,0.00,,,0.00,Weather View 32 v70,2013-04-22 18:36:00,
2013-04-22 14:41:00,67.0,60.6,30.40,West,270,0.0,6.0,80,0.00,,,0.00,Weather View 32 v70,2013-04-22 18:41:00,
2013-04-22 14:46:00,67.0,60.6,30.40,West,270,0.0,8.0,80,0.00,,,0.00,Weather View 32 v70,2013-04-22 18:46:00,
2013-04-22 14:51:00,67.0,60.6,30.40,SE,135,0.0,8.0,80,0.00,,,0.00,Weather View 32 v70,2013-04-22 18:51:00,
2013-04-22 14:56:00,67.0,60.6,30.39,West,270,0.0,8.0,80,0.00,,,0.00,Weather View 32 v70,2013-04-22 18:56:00,
2013-04-22 15:01:00,67.0,60.6,30.39,WNW,292,0.0,8.0,80,0.00,,,0.00,Weather View 32 v70,2013-04-22 19:01:00,
2013-04-22 15:06:00,67.0,60.6,30.38,West,270,0.0,8.0,80,0.00,,,0.00,Weather View 32 v70,2013-04-22 19:06:00,
2013-04-22 15:11:00,67.0,60.6,30.38,SE,135,0.0,8.0,80,0.00,,,0.00,Weather View 32 v70,2013-04-22 19:11:00,
2013-04-22 15:16:00,67.0,60.6,30.38,North,360,0.0,8.0,80,0.00,,,0.00,Weather View 32 v70,2013-04-22 19:16:00,
2013-04-22 15:21:00,67.0,60.6,30.38,SW,225,0.0,8.0,80,0.00,,,0.00,Weather View 32 v70,2013-04-22 19:21:00,
2013-04-22 15:26:00,68.0,61.6,30.37,SW,225,0.0,8.0,80,0.00,,,0.00,Weather View 32 v70,2013-04-22 19:26:00,
2013-04-22 15:31:00,68.0,61.6,30.37,West,270,0.0,8.0,80,0.00,,,0.00,Weather View 32 v70,2013-04-22 19:31:00,
2013-04-22 15:41:00,67.0,60.6,30.36,East,90,0.0,8.0,80,0.00,,,0.00,Weather View 32 v70,2013-04-22 19:41:00,
2013-04-22 15:46:00,67.0,60.6,30.37,East,90,0.0,8.0,80,0.00,,,0.00,Weather View 32 v70,2013-04-22 19:46:00,
2013-04-22 15:51:00,67.0,60.6,30.37,West,270,0.0,8.0,80,0.00,,,0.00,Weather View 32 v70,2013-04-22 19:51:00,
2013-04-22 15:56:00,67.0,60.6,30.36,North,360,0.0,5.0,80,0.00,,,0.00,Weather View 32 v70,2013-04-22 19:56:00,
2013-04-22 16:01:00,67.0,60.6,30.36,WSW,247,0.0,5.0,80,0.00,,,0.00,Weather View 32 v70,2013-04-22 20:01:00,
2013-04-22 16:06:00,66.0,59.6,30.37,West,270,0.0,5.0,80,0.00,,,0.00,Weather View 32 v70,2013-04-22 20:06:00,
2013-04-22 16:11:00,66.0,59.6,30.37,SW,225,0.0,5.0,80,0.00,,,0.00,Weather View 32 v70,2013-04-22 20:11:00,
2013-04-22 16:16:00,66.0,59.6,30.36,East,90,0.0,5.0,80,0.00,,,0.00,Weather View 32 v70,2013-04-22 20:16:00,
2013-04-22 16:21:00,66.0,59.6,30.36,SW,225,0.0,5.0,80,0.00,,,0.00,Weather View 32 v70,2013-04-22 20:21:00,
2013-04-22 16:26:00,66.0,59.6,30.36,West,270,0.0,5.0,80,0.00,,,0.00,Weather View 32 v70,2013-04-22 20:26:00,
2013-04-22 16:31:00,65.0,58.7,30.36,SW,225,0.0,4.0,80,0.00,,,0.00,Weather View 32 v70,2013-04-22 20:31:00,
2013-04-22 16:36:00,65.0,58.7,30.37,NW,315,0.0,5.0,80,0.00,,,0.00,Weather View 32 v70,2013-04-22 20:36:00,
2013-04-22 16:41:00,65.0,58.7,30.37,WNW,292,0.0,5.0,80,0.00,,,0.00,Weather View 32 v70,2013-04-22 20:41:00,
2013-04-22 16:51:00,64.0,57.7,30.36,West,270,0.0,5.0,80,0.00,,,0.00,Weather View 32 v70,2013-04-22 20:51:00,
2013-04-22 16:56:00,64.0,57.7,30.36,SW,225,0.0,5.0,80,0.00,,,0.00,Weather View 32 v70,2013-04-22 20:56:00,
2013-04-22 17:01:00,64.0,57.7,30.36,SW,225,0.0,5.0,80,0.00,,,0.00,Weather View 32 v70,2013-04-22 21:01:00,
2013-04-22 17:06:00,64.0,57.7,30.36,SE,135,0.0,5.0,80,0.00,,,0.00,Weather View 32 v70,2013-04-22 21:06:00,
2013-04-22 17:11:00,64.0,57.7,30.36,SE,135,0.0,5.0,80,0.00,,,0.00,Weather View 32 v70,2013-04-22 21:11:00,
2013-04-22 17:16:00,64.0,57.7,30.36,SW,225,0.0,5.0,80,0.00,,,0.00,Weather View 32 v70,2013-04-22 21:16:00,
2013-04-22 17:21:00,64.0,57.7,30.36,SE,135,0.0,5.0,80,0.00,,,0.00,Weather View 32 v70,2013-04-22 21:21:00,
2013-04-22 17:26:00,63.0,56.4,30.36,SE,135,0.0,5.0,79,0.00,,,0.00,Weather View 32 v70,2013-04-22 21:26:00,
2013-04-22 17:31:00,63.0,56.4,30.36,North,360,0.0,5.0,79,0.00,,,0.00,Weather View 32 v70,2013-04-22 21:31:00,
2013-04-22 17:36:00,63.0,56.4,30.36,SE,135,0.0,4.0,79,0.00,,,0.00,Weather View 32 v70,2013-04-22 21:36:00,
2013-04-22 17:41:00,62.0,55.4,30.36,East,90,0.0,4.0,79,0.00,,,0.00,Weather View 32 v70,2013-04-22 21:41:00,
2013-04-22 17:46:00,62.0,55.4,30.37,WNW,292,0.0,4.0,79,0.00,,,0.00,Weather View 32 v70,2013-04-22 21:46:00,
2013-04-22 17:51:00,62.0,55.4,30.37,ESE,112,0.0,4.0,79,0.00,,,0.00,Weather View 32 v70,2013-04-22 21:51:00,
2013-04-22 17:56:00,62.0,55.4,30.37,ESE,112,0.0,4.0,79,0.00,,,0.00,Weather View 32 v70,2013-04-22 21:56:00,
2013-04-22 18:06:00,61.0,54.4,30.36,West,270,0.0,5.0,79,0.00,,,0.00,Weather View 32 v70,2013-04-22 22:06:00,
2013-04-22 18:11:00,61.0,54.4,30.36,East,90,0.0,5.0,79,0.00,,,0.00,Weather View 32 v70,2013-04-22 22:11:00,
2013-04-22 18:16:00,61.0,54.4,30.37,SW,225,0.0,5.0,79,0.00,,,0.00,Weather View 32 v70,2013-04-22 22:16:00,
2013-04-22 18:21:00,61.0,54.4,30.37,ENE,67,0.0,5.0,79,0.00,,,0.00,Weather View 32 v70,2013-04-22 22:21:00,
2013-04-22 18:26:00,60.0,53.5,30.37,NW,315,0.0,5.0,79,0.00,,,0.00,Weather View 32 v70,2013-04-22 22:26:00,
2013-04-22 18:31:00,60.0,53.5,30.37,West,270,0.0,5.0,79,0.00,,,0.00,Weather View 32 v70,2013-04-22 22:31:00,
2013-04-22 18:36:00,60.0,53.5,30.37,West,270,0.0,5.0,79,0.00,,,0.00,Weather View 32 v70,2013-04-22 22:36:00,
2013-04-22 18:41:00,60.0,53.5,30.37,West,270,0.0,5.0,79,0.00,,,0.00,Weather View 32 v70,2013-04-22 22:41:00,
2013-04-22 18:46:00,60.0,53.5,30.37,SW,225,0.0,5.0,79,0.00,,,0.00,Weather View 32 v70,2013-04-22 22:46:00,
2013-04-22 18:51:00,59.0,52.5,30.37,South,180,0.0,5.0,79,0.00,,,0.00,Weather View 32 v70,2013-04-22 22:51:00,
2013-04-22 18:56:00,59.0,52.5,30.37,West,270,0.0,5.0,79,0.00,,,0.00,Weather View 32 v70,2013-04-22 22:56:00,
2013-04-22 19:01:00,59.0,52.5,30.37,SE,135,0.0,5.0,79,0.00,,,0.00,Weather View 32 v70,2013-04-22 23:01:00,
2013-04-22 19:06:00,59.0,52.5,30.38,West,270,0.0,4.0,79,0.00,,,0.00,Weather View 32 v70,2013-04-22 23:06:00,
2013-04-22 19:11:00,59.0,52.5,30.38,North,360,0.0,4.0,79,0.00,,,0.00,Weather View 32 v70,2013-04-22 23:11:00,
2013-04-22 19:16:00,59.0,52.5,30.38,SE,135,0.0,4.0,79,0.00,,,0.00,Weather View 32 v70,2013-04-22 23:16:00,
2013-04-22 19:21:00,58.0,51.2,30.38,SE,135,0.0,4.0,78,0.00,,,0.00,Weather View 32 v70,2013-04-22 23:21:00,
2013-04-22 19:31:00,58.0,51.2,30.38,ESE,112,0.0,4.0,78,0.00,,,0.00,Weather View 32 v70,2013-04-22 23:31:00,
2013-04-22 19:36:00,58.0,51.2,30.38,West,270,0.0,4.0,78,0.00,,,0.00,Weather View 32 v70,2013-04-22 23:36:00,
2013-04-22 19:41:00,58.0,51.2,30.38,West,270,0.0,4.0,78,0.00,,,0.00,Weather View 32 v70,2013-04-22 23:41:00,
2013-04-22 19:46:00,57.0,50.2,30.38,NW,315,0.0,4.0,78,0.00,,,0.00,Weather View 32 v70,2013-04-22 23:46:00,
2013-04-22 19:51:00,57.0,50.2,30.38,SW,225,0.0,4.0,78,0.00,,,0.00,Weather View 32 v70,2013-04-22 23:51:00,
2013-04-22 19:56:00,57.0,50.2,30.39,SW,225,0.0,4.0,78,0.00,,,0.00,Weather View 32 v70,2013-04-22 23:56:00,
2013-04-22 20:01:00,57.0,50.2,30.39,East,90,0.0,3.0,78,0.00,,,0.00,Weather View 32 v70,2013-04-23 00:01:00,
2013-04-22 20:06:00,57.0,50.2,30.39,South,180,0.0,3.0,78,0.00,,,0.00,Weather View 32 v70,2013-04-23 00:06:00,
2013-04-22 20:11:00,57.0,50.2,30.39,West,270,0.0,3.0,78,0.00,,,0.00,Weather View 32 v70,2013-04-23 00:11:00,
2013-04-22 20:21:00,56.0,49.2,30.40,South,180,0.0,3.0,78,0.00,,,0.00,Weather View 32 v70,2013-04-23 00:21:00,
2013-04-22 20:26:00,56.0,49.2,30.40,West,270,0.0,3.0,78,0.00,,,0.00,Weather View 32 v70,2013-04-23 00:26:00,
2013-04-22 20:31:00,56.0,49.2,30.40,East,90,0.0,3.0,78,0.00,,,0.00,Weather View 32 v70,2013-04-23 00:31:00,
2013-04-22 20:36:00,56.0,49.2,30.40,SW,225,0.0,3.0,78,0.00,,,0.00,Weather View 32 v70,2013-04-23 00:36:00,
2013-04-22 20:46:00,55.0,48.3,30.41,SW,225,0.0,5.0,78,0.00,,,0.00,Weather View 32 v70,2013-04-23 00:46:00,
2013-04-22 20:51:00,55.0,48.3,30.41,SW,225,0.0,5.0,78,0.00,,,0.00,Weather View 32 v70,2013-04-23 00:51:00,
2013-04-22 20:56:00,55.0,48.3,30.41,SW,225,0.0,5.0,78,0.00,,,0.00,Weather View 32 v70,2013-04-23 00:56:00,
2013-04-22 21:01:00,55.0,48.3,30.41,SW,225,0.0,5.0,78,0.00,,,0.00,Weather View 32 v70,2013-04-23 01:01:00,
2013-04-22 21:06:00,55.0,48.3,30.41,NW,315,0.0,5.0,78,0.00,,,0.00,Weather View 32 v70,2013-04-23 01:06:00,
2013-04-22 21:11:00,54.0,47.3,30.41,West,270,0.0,5.0,78,0.00,,,0.00,Weather View 32 v70,2013-04-23 01:11:00,
2013-04-22 21:16:00,54.0,47.3,30.41,WNW,292,0.0,5.0,78,0.00,,,0.00,Weather View 32 v70,2013-04-23 01:16:00,
2013-04-22 21:21:00,54.0,47.3,30.41,East,90,0.0,5.0,78,0.00,,,0.00,Weather View 32 v70,2013-04-23 01:21:00,
2013-04-22 21:26:00,54.0,47.3,30.41,West,270,4.0,5.0,78,0.00,,,0.00,Weather View 32 v70,2013-04-23 01:26:00,
2013-04-22 21:31:00,54.0,47.3,30.41,SW,225,0.0,5.0,78,0.00,,,0.00,Weather View 32 v70,2013-04-23 01:31:00,
2013-04-22 21:36:00,54.0,47.3,30.42,West,270,0.0,5.0,78,0.00,,,0.00,Weather View 32 v70,2013-04-23 01:36:00,
2013-04-22 21:41:00,53.0,46.0,30.42,West,270,0.0,5.0,77,0.00,,,0.00,Weather View 32 v70,2013-04-23 01:41:00,
2013-04-22 21:46:00,53.0,46.0,30.43,West,270,0.0,5.0,77,0.00,,,0.00,Weather View 32 v70,2013-04-23 01:46:00,
2013-04-22 21:51:00,53.0,46.0,30.43,West,270,0.0,4.0,77,0.00,,,0.00,Weather View 32 v70,2013-04-23 01:51:00,
2013-04-22 22:01:00,53.0,46.0,30.43,West,270,0.0,4.0,77,0.00,,,0.00,Weather View 32 v70,2013-04-23 02:01:00,
2013-04-22 22:06:00,53.0,46.0,30.43,West,270,0.0,4.0,77,0.00,,,0.00,Weather View 32 v70,2013-04-23 02:06:00,
2013-04-22 22:11:00,53.0,46.0,30.43,SW,225,0.0,4.0,77,0.00,,,0.00,Weather View 32 v70,2013-04-23 02:11:00,
2013-04-22 22:16:00,52.0,45.0,30.43,West,270,0.0,4.0,77,0.00,,,0.00,Weather View 32 v70,2013-04-23 02:16:00,
2013-04-22 22:21:00,52.0,45.0,30.43,West,270,0.0,4.0,77,0.00,,,0.00,Weather View 32 v70,2013-04-23 02:21:00,
2013-04-22 22:26:00,52.0,45.0,30.43,West,270,0.0,4.0,77,0.00,,,0.00,Weather View 32 v70,2013-04-23 02:26:00,
2013-04-22 22:31:00,52.0,45.0,30.43,West,270,0.0,0.0,77,0.00,,,0.00,Weather View 32 v70,2013-04-23 02:31:00,
2013-04-22 22:36:00,52.0,45.0,30.43,West,270,0.0,0.0,77,0.00,,,0.00,Weather View 32 v70,2013-04-23 02:36:00,
2013-04-22 22:41:00,52.0,45.0,30.43,West,270,0.0,0.0,77,0.00,,,0.00,Weather View 32 v70,2013-04-23 02:41:00,
2013-04-22 22:46:00,51.0,44.0,30.43,West,270,0.0,0.0,77,0.00,,,0.00,Weather View 32 v70,2013-04-23 02:46:00,
2013-04-22 22:51:00,51.0,44.0,30.43,SSE,157,0.0,0.0,77,0.00,,,0.00,Weather View 32 v70,2013-04-23 02:51:00,
2013-04-22 22:56:00,51.0,44.0,30.42,West,270,0.0,0.0,77,0.00,,,0.00,Weather View 32 v70,2013-04-23 02:56:00,
2013-04-22 23:01:00,51.0,44.0,30.42,West,270,0.0,0.0,77,0.00,,,0.00,Weather View 32 v70,2013-04-23 03:01:00,
2013-04-22 23:06:00,51.0,44.0,30.41,WNW,292,0.0,0.0,77,0.00,,,0.00,Weather View 32 v70,2013-04-23 03:06:00,
2013-04-22 23:11:00,51.0,44.0,30.41,WSW,247,0.0,0.0,77,0.00,,,0.00,Weather View 32 v70,2013-04-23 03:11:00,
2013-04-22 23:21:00,51.0,44.0,30.41,West,270,0.0,2.0,77,0.00,,,0.00,Weather View 32 v70,2013-04-23 03:21:00,
2013-04-22 23:26:00,51.0,44.0,30.41,NW,315,0.0,2.0,77,0.00,,,0.00,Weather View 32 v70,2013-04-23 03:26:00,
2013-04-22 23:31:00,51.0,44.0,30.41,South,180,0.0,2.0,77,0.00,,,0.00,Weather View 32 v70,2013-04-23 03:31:00,
2013-04-22 23:36:00,51.0,44.0,30.41,WNW,292,0.0,2.0,77,0.00,,,0.00,Weather View 32 v70,2013-04-23 03:36:00,
2013-04-22 23:41:00,51.0,44.0,30.41,WNW,292,0.0,2.0,77,0.00,,,0.00,Weather View 32 v70,2013-04-23 03:41:00,
2013-04-22 23:46:00,51.0,44.0,30.41,South,180,0.0,2.0,77,0.00,,,0.00,Weather View 32 v70,2013-04-23 03:46:00,
2013-04-22 23:51:00,51.0,44.0,30.41,West,270,0.0,2.0,77,0.00,,,0.00,Weather View 32 v70,2013-04-23 03:51:00,
2013-04-22 23:56:00,51.0,44.0,30.41,West,270,0.0,2.0,77,0.00,,,0.00,Weather View 32 v70,2013-04-23 03:56:00,